When you browse on this site, cookies collect data to enhance your experience and personalize the content and advertising you see.
Visit our Privacy Policy to learn more. By continuing to use the site, you agree to this use of cookies and data.
  • In United Kingdom
  • List of Countries
  • For 7 days
  • Water Temperature
  • Satellite Maps
  • Weather Map
  • Weather Widgets
  • user-avatar
    Login

    Hourly Weather Man

    Today, 21 April, Sunday

    Time Temperature Precipitation Wind Pressure Humidity
    00:00 +25°C° 0 mm 1 mps 725 mmHg 95%
    01:00 +25°C° 0 mm 1 mps 725 mmHg 95%
    02:00 +25°C° 0 mm 1 mps 724 mmHg 95%
    03:00 +25°C° 0 mm 1 mps 724 mmHg 96%
    04:00 +24°C° 0 mm 1 mps 725 mmHg 97%
    05:00 +22°C° 0 mm 0 mps 725 mmHg 98%
    06:00 +24°C° 0.2 mm 0 mps 725 mmHg 90%
    07:00 +28°C° 0.2 mm 1 mps 726 mmHg 83%
    08:00 +29°C° 0.2 mm 1 mps 727 mmHg 75%
    09:00 +32°C° 0.1 mm 1 mps 726 mmHg 65%
    10:00 +34°C° 0.1 mm 1 mps 726 mmHg 54%
    11:00 +36°C° 0.1 mm 1 mps 726 mmHg 43%
    12:00 +37°C° 0 mm 1 mps 725 mmHg 42%
    13:00 +37°C° 0 mm 1 mps 724 mmHg 41%
    14:00 +35°C° 0 mm 0 mps 723 mmHg 39%
    15:00 +34°C° 0 mm 0 mps 723 mmHg 44%
    16:00 +33°C° 0 mm 0 mps 722 mmHg 50%
    17:00 +31°C° 0 mm 0 mps 722 mmHg 55%
    18:00 +30°C° 0 mm 0 mps 723 mmHg 59%
    19:00 +28°C° 0 mm 0 mps 723 mmHg 63%
    20:00 +27°C° 0 mm 0 mps 724 mmHg 67%
    21:00 +26°C° 0.7 mm 0 mps 724 mmHg 74%
    22:00 +27°C° 0.7 mm 1 mps 724 mmHg 80%
    23:00 +26°C° 0.7 mm 1 mps 724 mmHg 87%

    Tomorrow, 22 April, Monday

    Time Temperature Precipitation Wind Pressure Humidity
    00:00 +25°C° 0.6 mm 1 mps 724 mmHg 90%
    01:00 +25°C° 0.6 mm 1 mps 724 mmHg 93%
    02:00 +25°C° 0.6 mm 1 mps 723 mmHg 96%
    03:00 +25°C° 0 mm 1 mps 723 mmHg 97%
    04:00 +23°C° 0 mm 0 mps 723 mmHg 97%
    05:00 +22°C° 0 mm 0 mps 723 mmHg 97%
    06:00 +26°C° 0 mm 1 mps 724 mmHg 92%
    07:00 +27°C° 0 mm 1 mps 725 mmHg 87%
    08:00 +29°C° 0 mm 1 mps 725 mmHg 81%
    09:00 +31°C° 0 mm 1 mps 725 mmHg 72%
    10:00 +33°C° 0 mm 1 mps 725 mmHg 63%
    11:00 +36°C° 0 mm 2 mps 725 mmHg 54%
    12:00 +36°C° 0.2 mm 2 mps 724 mmHg 52%
    13:00 +36°C° 0.2 mm 1 mps 723 mmHg 50%
    14:00 +36°C° 0.2 mm 1 mps 722 mmHg 48%
    15:00 +35°C° 0.3 mm 1 mps 722 mmHg 53%
    16:00 +34°C° 0.3 mm 1 mps 722 mmHg 58%
    17:00 +32°C° 0.3 mm 1 mps 722 mmHg 63%
    18:00 +31°C° 0.2 mm 1 mps 722 mmHg 68%
    19:00 +29°C° 0.2 mm 1 mps 723 mmHg 74%
    20:00 +28°C° 0.2 mm 1 mps 724 mmHg 79%
    21:00 +27°C° 0.8 mm 1 mps 724 mmHg 84%
    22:00 +27°C° 0.8 mm 1 mps 724 mmHg 88%
    23:00 +26°C° 0.8 mm 1 mps 724 mmHg 93%

    Day after tomorrow, 23 April, Tuesday

    Time Temperature Precipitation Wind Pressure Humidity
    00:00 +26°C° 0 mm 1 mps 723 mmHg 94%
    01:00 +26°C° 0 mm 1 mps 723 mmHg 95%
    02:00 +26°C° 0 mm 1 mps 722 mmHg 95%
    03:00 +26°C° 0 mm 1 mps 723 mmHg 95%
    04:00 +25°C° 0 mm 1 mps 723 mmHg 95%
    05:00 +25°C° 0 mm 1 mps 724 mmHg 95%
    06:00 +26°C° 0 mm 1 mps 724 mmHg 90%
    07:00 +28°C° 0 mm 1 mps 725 mmHg 85%
    08:00 +29°C° 0 mm 2 mps 725 mmHg 81%
    09:00 +31°C° 0 mm 2 mps 725 mmHg 72%
    10:00 +32°C° 0 mm 2 mps 725 mmHg 63%
    11:00 +35°C° 0 mm 2 mps 725 mmHg 55%
    12:00 +36°C° 0 mm 2 mps 724 mmHg 51%
    13:00 +36°C° 0 mm 1 mps 723 mmHg 47%
    14:00 +37°C° 0 mm 1 mps 722 mmHg 44%
    15:00 +36°C° 0 mm 1 mps 722 mmHg 49%
    16:00 +34°C° 0 mm 1 mps 722 mmHg 54%
    17:00 +33°C° 0 mm 1 mps 722 mmHg 60%
    18:00 +31°C° 1.6 mm 1 mps 722 mmHg 70%
    19:00 +29°C° 1.6 mm 1 mps 723 mmHg 80%
    20:00 +27°C° 1.6 mm 1 mps 723 mmHg 91%
    21:00 +27°C° 0 mm 1 mps 724 mmHg 92%
    22:00 +26°C° 0 mm 1 mps 724 mmHg 93%
    23:00 +26°C° 0 mm 1 mps 724 mmHg 95%

    24 April, Wednesday

    Time Temperature Precipitation Wind Pressure Humidity
    00:00 +26°C° 0.6 mm 1 mps 723 mmHg 96%
    01:00 +26°C° 0.6 mm 1 mps 723 mmHg 97%
    02:00 +26°C° 0.6 mm 1 mps 722 mmHg 98%
    03:00 +26°C° 0.1 mm 1 mps 723 mmHg 97%
    04:00 +26°C° 0.1 mm 1 mps 723 mmHg 97%
    05:00 +26°C° 0.1 mm 1 mps 724 mmHg 96%
    06:00 +27°C° 0 mm 1 mps 724 mmHg 91%
    07:00 +28°C° 0 mm 1 mps 725 mmHg 85%
    08:00 +29°C° 0 mm 1 mps 725 mmHg 79%
    09:00 +31°C° 0 mm 1 mps 725 mmHg 71%
    10:00 +33°C° 0 mm 1 mps 725 mmHg 62%
    11:00 +36°C° 0 mm 2 mps 725 mmHg 54%
    12:00 +35°C° 1.5 mm 1 mps 724 mmHg 58%
    13:00 +34°C° 1.5 mm 1 mps 723 mmHg 61%
    14:00 +34°C° 1.5 mm 1 mps 722 mmHg 65%
    15:00 +32°C° 1.5 mm 1 mps 723 mmHg 73%
    16:00 +31°C° 1.5 mm 1 mps 723 mmHg 80%
    17:00 +27°C° 1.5 mm 0 mps 723 mmHg 87%
    18:00 +26°C° 0.7 mm 0 mps 724 mmHg 90%
    19:00 +27°C° 0.7 mm 1 mps 724 mmHg 92%
    20:00 +26°C° 0.7 mm 1 mps 725 mmHg 95%
    21:00 +26°C° 0 mm 1 mps 725 mmHg 96%
    22:00 +25°C° 0 mm 1 mps 725 mmHg 96%
    23:00 +25°C° 0 mm 1 mps 725 mmHg 97%

    25 April, Thursday

    Time Temperature Precipitation Wind Pressure Humidity
    00:00 +25°C° 0 mm 1 mps 724 mmHg 97%
    01:00 +25°C° 0 mm 1 mps 724 mmHg 98%
    02:00 +25°C° 0 mm 1 mps 723 mmHg 98%
    03:00 +24°C° 0 mm 1 mps 724 mmHg 98%
    04:00 +24°C° 0 mm 1 mps 724 mmHg 98%
    05:00 +24°C° 0 mm 1 mps 724 mmHg 98%
    06:00 +26°C° 0 mm 1 mps 725 mmHg 92%
    07:00 +27°C° 0 mm 1 mps 726 mmHg 87%
    08:00 +28°C° 0 mm 1 mps 726 mmHg 81%
    09:00 +30°C° 0 mm 1 mps 726 mmHg 74%
    10:00 +32°C° 0 mm 1 mps 726 mmHg 67%
    11:00 +33°C° 0 mm 1 mps 725 mmHg 60%
    12:00 +33°C° 0 mm 1 mps 725 mmHg 58%
    13:00 +34°C° 0 mm 1 mps 724 mmHg 57%
    14:00 +34°C° 0 mm 1 mps 723 mmHg 55%
    15:00 +33°C° 0 mm 1 mps 723 mmHg 59%
    16:00 +33°C° 0 mm 1 mps 723 mmHg 63%
    17:00 +30°C° 0 mm 0 mps 723 mmHg 67%
    18:00 +28°C° 2.4 mm 0 mps 724 mmHg 75%
    19:00 +26°C° 2.4 mm 0 mps 724 mmHg 83%
    20:00 +24°C° 2.4 mm 0 mps 725 mmHg 91%
    21:00 +26°C° 1.6 mm 1 mps 725 mmHg 93%
    22:00 +26°C° 1.6 mm 1 mps 725 mmHg 95%
    23:00 +26°C° 1.6 mm 1 mps 725 mmHg 97%

    26 April, Friday

    Time Temperature Precipitation Wind Pressure Humidity
    00:00 +25°C° 0 mm 1 mps 724 mmHg 97%
    01:00 +25°C° 0 mm 1 mps 724 mmHg 97%
    02:00 +25°C° 0 mm 1 mps 723 mmHg 97%
    03:00 +25°C° 0.1 mm 1 mps 723 mmHg 98%
    04:00 +25°C° 0.1 mm 1 mps 724 mmHg 98%
    05:00 +24°C° 0.1 mm 1 mps 724 mmHg 98%
    06:00 +25°C° 0.1 mm 1 mps 725 mmHg 94%
    07:00 +27°C° 0.1 mm 1 mps 725 mmHg 91%
    08:00 +28°C° 0.1 mm 1 mps 726 mmHg 87%
    09:00 +29°C° 0.5 mm 1 mps 725 mmHg 80%
    10:00 +31°C° 0.5 mm 1 mps 725 mmHg 73%
    11:00 +34°C° 0.5 mm 2 mps 725 mmHg 66%
    12:00 +34°C° 0.3 mm 1 mps 724 mmHg 61%
    13:00 +35°C° 0.3 mm 1 mps 723 mmHg 57%
    14:00 +36°C° 0.3 mm 1 mps 722 mmHg 53%
    15:00 +34°C° 0.9 mm 1 mps 723 mmHg 61%
    16:00 +32°C° 0.9 mm 1 mps 723 mmHg 70%
    17:00 +30°C° 0.9 mm 1 mps 723 mmHg 78%
    18:00 +29°C° 0.2 mm 1 mps 723 mmHg 82%
    19:00 +28°C° 0.2 mm 1 mps 724 mmHg 87%
    20:00 +27°C° 0.2 mm 1 mps 724 mmHg 92%
    21:00 +26°C° 0.1 mm 1 mps 724 mmHg 93%
    22:00 +26°C° 0.1 mm 1 mps 724 mmHg 94%
    23:00 +26°C° 0.1 mm 1 mps 724 mmHg 95%
    Show more